AKDT,Max TemperatureF,Mean TemperatureF,Min TemperatureF,Max Dew PointF,MeanDew PointF,Min DewpointF,Max Humidity, Mean Humidity, Min Humidity, Max Sea Level PressureIn, Mean Sea Level PressureIn, Min Sea Level PressureIn, Max VisibilityMiles, Mean VisibilityMiles, Min VisibilityMiles, Max Wind SpeedMPH, Mean Wind SpeedMPH, Max Gust SpeedMPH,PrecipitationIn, CloudCover, Events, WindDirDegrees
2013-4-1,1,0,-2,-2,-4,-6,92,85,85,30.50,30.49,30.47,10,7,2,22,14,,0.00,7,Snow,77
2013-4-2,-5,-10,-14,-9,-14,-18,84,82,77,30.67,30.61,30.56,10,4,1,20,16,,0.00,0,,54
2013-4-3,-4,-13,-22,-8,-17,-26,85,80,76,30.88,30.84,30.77,10,10,10,9,8,,0.00,0,,56
2013-4-4,-7,-14,-22,-13,-19,-27,92,79,76,30.87,30.81,30.73,10,9,5,9,6,,0.00,2,,1
2013-4-5,-11,-18,-25,-17,-24,-31,84,77,69,30.65,30.59,30.52,10,8,5,13,10,,0.00,1,,38
2013-4-6,-4,-18,-31,-24,-29,-36,83,72,35,30.43,30.33,30.24,10,10,7,6,4,,0.00,0,,35
2013-4-7,-23,-28,-32,-29,-33,-38,76,75,69,30.17,30.12,30.08,10,5,2,14,7,,0.00,3,Snow,259
2013-4-8,-11,-14,-18,-17,-19,-24,84,77,76,30.03,30.01,29.99,10,4,2,22,14,,0.00,5,Snow,249
2013-4-9,-5,-14,-23,-9,-19,-29,84,78,76,29.94,29.80,29.66,10,4,2,10,6,,0.00,8,Snow,314
2013-4-10,0,-2,-5,-4,-7,-9,85,82,78,29.87,29.76,29.68,3,2,2,17,13,,0.00,8,Snow,283
2013-4-11,-5,-9,-13,-11,-14,-17,84,80,77,30.35,30.23,30.05,10,9,5,23,18,,0.00,4,,265
2013-4-12,-4,-10,-16,-9,-15,-20,84,79,77,30.46,30.44,30.42,10,9,6,20,17,,0.00,2,,256
2013-4-13,1,-6,-14,-4,-12,-20,85,78,65,30.44,30.43,30.41,10,10,10,5,3,,0.00,5,,64
2013-4-14,-4,-11,-18,-8,-15,-24,85,80,76,30.80,30.68,30.55,10,9,3,15,10,,0.00,5,Snow,260
2013-4-15,-4,-12,-20,-8,-17,-26,85,79,76,30.95,30.93,30.91,10,8,3,15,9,,0.00,3,Fog,261
2013-4-16,1,-10,-22,-2,-14,-27,85,82,76,30.81,30.73,30.66,10,5,0,16,8,,0.00,4,Fog,56
2013-4-17,0,-7,-14,-4,-11,-20,85,84,77,30.75,30.70,30.65,10,9,7,14,11,,0.00,0,,71
2013-4-18,1,-6,-14,-2,-11,-20,85,80,77,30.75,30.72,30.66,7,6,3,5,3,,0.00,3,,277
2013-4-19,10,-2,-14,5,-6,-20,85,81,77,30.59,30.52,30.43,10,10,7,13,7,,0.00,2,,242
2013-4-20,14,8,1,12,7,0,93,85,73,30.36,30.33,30.31,10,10,7,23,19,,0.00,4,,254
2013-4-21,14,10,5,12,5,-2,93,85,72,30.36,30.34,30.32,7,2,1,26,23,33,0.00,6,Snow,254
2013-4-22,28,19,10,23,13,1,86,77,67,30.26,30.20,30.16,10,10,10,22,17,26,0.00,6,,241
2013-4-23,26,24,23,25,22,18,93,88,74,30.10,30.04,29.98,10,4,1,34,26,40,0.00,5,Snow,245
2013-4-24,24,17,10,21,12,5,93,87,79,30.20,30.02,29.87,7,3,0,28,24,30,0.00,5,Snow,287
2013-4-25,8,4,0,5,1,-9,85,79,66,30.34,30.29,30.22,10,3,1,22,17,,0.00,7,Snow,265
2013-4-26,8,7,6,5,4,3,92,86,79,29.92,29.83,29.78,10,6,2,14,9,,0.00,4,Snow,353
2013-4-27,10,0,-9,7,-1,-13,92,85,84,30.26,30.24,30.19,10,7,1,22,10,28,0.00,3,Snow,233
2013-4-28,19,16,14,16,14,12,93,91,86,30.10,30.08,30.06,2,1,1,20,17,,0.00,8,Snow,283
2013-4-29,14,12,10,10,9,7,92,88,85,30.22,30.15,30.12,7,5,2,13,9,,0.00,6,Snow,271
2013-4-30,1,-2,-4,-2,-6,-8,85,81,72,30.46,30.41,30.34,10,9,4,21,17,,0.00,2,Snow,59